User: anonymous   Login
Location: Squamish
(49.7000°N, 123.1500°W)
Time: 02:16:28
(UTC-08:00)
Language:

NOAA 19 - Orbit

View from above orbital plane
View from above orbital plane
View from above satellite
View from above satellite

Ground track
Ground track

The orbit data is extracted from the following two-line orbital elements,

1 33591U 09005A   16339.06988631  .00000242  00000-0  15684-3 0  9993
2 33591  99.0637 297.4261 0014938 101.7073 258.5885 14.12133456403112
Epoch (UTC): 04 December 2016 01:40:38
Eccentricity: 0.0014938
inclination: 99.0637°
perigee height: 841 km
apogee height: 863 km
right ascension of ascending node: 297.4261°
argument of perigee: 101.7073°
revolutions per day: 14.12133456
mean anomaly at epoch: 258.5885°
orbit number at epoch: 40311

The dashed part of the orbit path shows where the satellite is in the earth's shadow,  

DLR